| time (UTC) | temp C | wind direction | speed KPH | gust KPH | rain 1hr cm | rain 24hr cm | rain mn cm | humidity % | barometer mb |
| 20260831213020 | 25 | 125 | 17.7 | 27.4 | 0.00 | 0.00 | 0.00 | 38 | 879.4 |
| 20260831211518 | 26 | 150 | 14.5 | 38.6 | 0.00 | 0.00 | 0.00 | 36 | 879.5 |
| 20260831210017 | 26 | 124 | 16.1 | 33.8 | 0.00 | 0.00 | 0.00 | 35 | 879.6 |
| 20260831204517 | 26 | 158 | 12.9 | 33.8 | 0.00 | 0.00 | 0.00 | 35 | 879.8 |
| 20260831203016 | 25 | 61 | 14.5 | 25.7 | 0.00 | 0.00 | 0.00 | 35 | 879.9 |
| 20260831201515 | 26 | 126 | 11.3 | 27.4 | 0.00 | 0.00 | 0.00 | 35 | 879.9 |
| 20260831200014 | 25 | 115 | 9.7 | 32.2 | 0.00 | 0.00 | 0.00 | 34 | 879.9 |
| 20260831194514 | 26 | 95 | 14.5 | 29.0 | 0.00 | 0.00 | 0.00 | 32 | 879.9 |
| 20260831193022 | 26 | 123 | 9.7 | 32.2 | 0.00 | 0.00 | 0.00 | 32 | 880.0 |
| 20260831191511 | 26 | 128 | 17.7 | 27.4 | 0.00 | 0.00 | 0.00 | 31 | 880.1 |
| 20260831190022 | 25 | 113 | 14.5 | 24.1 | 0.00 | 0.00 | 0.00 | 33 | 880.1 |
| 20260831184507 | 25 | 49 | 12.9 | 33.8 | 0.00 | 0.00 | 0.00 | 35 | 880.2 |
| 20260831183008 | 25 | 123 | 14.5 | 25.7 | 0.00 | 0.00 | 0.00 | 34 | 880.1 |
| 20260831181504 | 25 | 90 | 16.1 | 24.1 | 0.00 | 0.00 | 0.00 | 32 | 880.0 |
| 20260831180001 | 24 | 153 | 12.9 | 22.5 | 0.00 | 0.00 | 0.00 | 32 | 880.0 |
| 20260831174633 | 24 | 91 | 11.3 | 24.1 | 0.00 | 0.00 | 0.00 | 32 | 880.0 |
| 20260831173058 | 24 | 131 | 9.7 | 25.7 | 0.00 | 0.00 | 0.00 | 29 | 879.8 |
| 20260831171555 | 23 | 160 | 12.9 | 27.4 | 0.00 | 0.00 | 0.00 | 31 | 879.8 |
| 20260831170056 | 23 | 161 | 16.1 | 25.7 | 0.00 | 0.00 | 0.00 | 29 | 879.5 |
| 20260831164555 | 23 | 133 | 11.3 | 25.7 | 0.00 | 0.00 | 0.00 | 32 | 879.5 |
| 20260831163048 | 22 | 136 | 16.1 | 27.4 | 0.00 | 0.00 | 0.00 | 25 | 879.4 |
| 20260831161546 | 22 | 156 | 9.7 | 24.1 | 0.00 | 0.00 | 0.00 | 23 | 879.3 |
| 20260831160043 | 22 | 111 | 12.9 | 25.7 | 0.00 | 0.00 | 0.00 | 22 | 879.4 |
| 20260831154546 | 22 | 129 | 14.5 | 25.7 | 0.00 | 0.00 | 0.00 | 19 | 879.2 |
| 20260831153051 | 21 | 124 | 12.9 | 20.9 | 0.00 | 0.00 | 0.00 | 19 | 879.2 |
| 20260831151544 | 21 | 107 | 11.3 | 22.5 | 0.00 | 0.00 | 0.00 | 19 | 879.1 |
| 20260831150033 | 20 | 109 | 12.9 | 24.1 | 0.00 | 0.00 | 0.00 | 20 | 879.0 |
| 20260831144530 | 20 | 98 | 12.9 | 19.3 | 0.00 | 0.00 | 0.00 | 20 | 878.8 |
| 20260831143035 | 19 | 141 | 11.3 | 17.7 | 0.00 | 0.00 | 0.00 | 21 | 878.8 |
| 20260831141528 | 18 | 107 | 9.7 | 20.9 | 0.00 | 0.00 | 0.00 | 22 | 878.6 |
| 20260831140034 | 18 | 116 | 9.7 | 16.1 | 0.00 | 0.00 | 0.00 | 22 | 878.5 |
| 20260831134527 | 18 | 125 | 11.3 | 16.1 | 0.00 | 0.00 | 0.00 | 22 | 878.3 |
| 20260831133025 | 18 | 111 | 6.4 | 14.5 | 0.00 | 0.00 | 0.00 | 22 | 878.1 |
| 20260831131522 | 18 | 102 | 9.7 | 17.7 | 0.00 | 0.00 | 0.00 | 21 | 878.0 |
| 20260831130020 | 18 | 87 | 8.0 | 16.1 | 0.00 | 0.00 | 0.00 | 21 | 877.9 |
| 20260831124518 | 18 | 99 | 12.9 | 22.5 | 0.00 | 0.00 | 0.00 | 20 | 877.7 |
| 20260831123019 | 18 | 115 | 11.3 | 17.7 | 0.00 | 0.00 | 0.00 | 20 | 877.7 |
| 20260831121522 | 18 | 105 | 12.9 | 24.1 | 0.00 | 0.00 | 0.00 | 19 | 877.6 |
| 20260831120032 | 18 | 96 | 11.3 | 20.9 | 0.00 | 0.00 | 0.00 | 19 | 877.5 |
| 20260831114512 | 18 | 76 | 11.3 | 19.3 | 0.00 | 0.00 | 0.00 | 19 | 877.6 |
| 20260831113010 | 18 | 116 | 11.3 | 24.1 | 0.00 | 0.00 | 0.00 | 18 | 877.6 |
| 20260831111510 | 18 | 115 | 12.9 | 25.7 | 0.00 | 0.00 | 0.00 | 18 | 877.8 |
| 20260831110005 | 18 | 114 | 8.0 | 22.5 | 0.00 | 0.00 | 0.00 | 19 | 877.8 |
| 20260831104504 | 19 | 101 | 11.3 | 22.5 | 0.00 | 0.00 | 0.00 | 18 | 877.9 |
| 20260831103002 | 19 | 98 | 8.0 | 19.3 | 0.00 | 0.00 | 0.00 | 18 | 877.9 |
| 20260831101501 | 19 | 109 | 9.7 | 19.3 | 0.00 | 0.00 | 0.00 | 19 | 877.9 |
| 20260831100059 | 19 | 77 | 11.3 | 17.7 | 0.00 | 0.00 | 0.00 | 19 | 877.9 |
| 20260831094606 | 19 | 87 | 9.7 | 17.7 | 0.00 | 0.00 | 0.00 | 18 | 878.0 |
| 20260831093141 | 19 | 105 | 9.7 | 20.9 | 0.00 | 0.00 | 0.00 | 18 | 878.0 |
| 20260831091552 | 19 | 129 | 11.3 | 20.9 | 0.00 | 0.00 | 0.00 | 18 | 878.1 |
| 20260831090050 | 19 | 140 | 9.7 | 19.3 | 0.00 | 0.00 | 0.00 | 17 | 878.1 |
| 20260831084630 | 20 | 81 | 9.7 | 25.7 | 0.00 | 0.00 | 0.00 | 16 | 878.3 |
| 20260831083050 | 20 | 88 | 9.7 | 20.9 | 0.00 | 0.00 | 0.00 | 16 | 878.3 |
| 20260831081544 | 20 | 73 | 9.7 | 17.7 | 0.00 | 0.00 | 0.00 | 15 | 878.5 |
| 20260831080100 | 20 | 113 | 9.7 | 20.9 | 0.00 | 0.00 | 0.00 | 16 | 878.5 |
| 20260831074548 | 20 | 67 | 9.7 | 17.7 | 0.00 | 0.00 | 0.00 | 16 | 878.6 |
| 20260831073042 | 20 | 98 | 9.7 | 17.7 | 0.00 | 0.00 | 0.00 | 16 | 878.6 |
| 20260831071544 | 20 | 119 | 8.0 | 16.1 | 0.00 | 0.00 | 0.00 | 16 | 878.7 |
| 20260831070036 | 20 | 98 | 8.0 | 16.1 | 0.00 | 0.00 | 0.00 | 19 | 878.8 |
| 20260831064543 | 20 | 86 | 4.8 | 19.3 | 0.00 | 0.00 | 0.00 | 24 | 878.9 |
| 20260831063036 | 20 | 83 | 8.0 | 17.7 | 0.00 | 0.00 | 0.00 | 25 | 878.7 |
| 20260831061529 | 20 | 111 | 8.0 | 20.9 | 0.00 | 0.00 | 0.00 | 25 | 878.7 |
| 20260831060031 | 21 | 77 | 9.7 | 20.9 | 0.00 | 0.00 | 0.00 | 26 | 878.6 |
| 20260831054527 | 20 | 76 | 11.3 | 19.3 | 0.00 | 0.00 | 0.00 | 28 | 878.6 |
| 20260831053027 | 20 | 105 | 6.4 | 16.1 | 0.00 | 0.00 | 0.00 | 30 | 878.6 |
| 20260831051535 | 20 | 82 | 8.0 | 20.9 | 0.00 | 0.00 | 0.00 | 30 | 878.6 |
| 20260831050026 | 20 | 105 | 8.0 | 22.5 | 0.00 | 0.00 | 0.00 | 29 | 878.6 |
| 20260831044525 | 20 | 93 | 11.3 | 17.7 | 0.00 | 0.00 | 0.00 | 29 | 878.6 |
| 20260831043023 | 20 | 94 | 8.0 | 17.7 | 0.00 | 0.00 | 0.00 | 31 | 878.6 |
| 20260831041522 | 20 | 75 | 9.7 | 20.9 | 0.00 | 0.00 | 0.00 | 32 | 878.7 |
| 20260831040026 | 20 | 81 | 9.7 | 17.7 | 0.00 | 0.00 | 0.00 | 33 | 878.5 |
| 20260831034520 | 20 | 109 | 6.4 | 16.1 | 0.00 | 0.00 | 0.00 | 35 | 878.4 |
| 20260831033021 | 20 | 94 | 6.4 | 17.7 | 0.00 | 0.00 | 0.00 | 38 | 878.2 |
| 20260831031517 | 19 | 108 | 4.8 | 14.5 | 0.00 | 0.00 | 0.00 | 47 | 878.1 |
| 20260831030015 | 19 | 94 | 6.4 | 16.1 | 0.00 | 0.00 | 0.00 | 57 | 878.0 |
| 20260831024514 | 20 | 83 | 11.3 | 16.1 | 0.00 | 0.00 | 0.00 | 52 | 878.0 |
| 20260831023013 | 20 | 89 | 8.0 | 14.5 | 0.00 | 0.00 | 0.00 | 46 | 878.0 |
| 20260831021517 | 21 | 94 | 8.0 | 16.1 | 0.00 | 0.00 | 0.00 | 49 | 878.0 |
| 20260831020013 | 21 | 59 | 6.4 | 16.1 | 0.00 | 0.00 | 0.00 | 44 | 877.9 |
| 20260831014514 | 22 | 113 | 12.9 | 25.7 | 0.00 | 0.00 | 0.00 | 40 | 877.9 |
| 20260831013012 | 23 | 132 | 11.3 | 25.7 | 0.00 | 0.00 | 0.00 | 36 | 877.8 |
| 20260831011516 | 23 | 109 | 14.5 | 29.0 | 0.00 | 0.00 | 0.00 | 34 | 877.8 |
| 20260831010010 | 24 | 122 | 17.7 | 30.6 | 0.00 | 0.00 | 0.00 | 34 | 877.8 |
| 20260831004509 | 25 | 132 | 16.1 | 29.0 | 0.00 | 0.00 | 0.00 | 32 | 877.7 |
| 20260831003009 | 25 | 115 | 14.5 | 29.0 | 0.00 | 0.00 | 0.00 | 30 | 877.9 |
| 20260831001508 | 26 | 80 | 16.1 | 40.2 | 0.00 | 0.00 | 0.00 | 29 | 878.0 |
| 20260831000007 | 26 | 136 | 14.5 | 29.0 | 0.00 | 0.00 | 0.00 | 29 | 878.1 |
| 20260830234507 | 27 | 67 | 11.3 | 35.4 | 0.00 | 0.00 | 0.00 | 29 | 878.1 |
| 20260830233005 | 27 | 114 | 12.9 | 37.0 | 0.00 | 0.00 | 0.00 | 28 | 878.2 |
| 20260830231504 | 27 | 178 | 17.7 | 25.7 | 0.00 | 0.00 | 0.00 | 28 | 878.1 |
| 20260830230003 | 27 | 157 | 14.5 | 29.0 | 0.00 | 0.00 | 0.00 | 29 | 878.3 |
| 20260830224502 | 27 | 123 | 17.7 | 27.4 | 0.00 | 0.00 | 0.00 | 28 | 878.4 |
| 20260830223002 | 27 | 154 | 14.5 | 29.0 | 0.00 | 0.00 | 0.00 | 29 | 878.5 |
| 20260830221501 | 27 | 132 | 19.3 | 29.0 | 0.00 | 0.00 | 0.00 | 30 | 878.6 |
| 20260830220001 | 27 | 146 | 11.3 | 27.4 | 0.00 | 0.00 | 0.00 | 33 | 878.8 |
| 20260830214601 | 27 | 156 | 19.3 | 37.0 | 0.00 | 0.00 | 0.00 | 34 | 878.9 |
| 20260830214502 | 28 | 96 | 16.1 | 30.6 | 0.00 | 0.00 | 0.00 | 34 | 878.9 |